Terminal Aerodrome Forecast
Issued by NWS State College, PA

Home | Current Version | Previous Version | Text Only | Print | Product List | Glossary On
Versions: 1 2 3 4 5 6 7 8 9 10 11 12 13 14 15 16 17 18 19 20 21 22 23 24 25 26 27 28 29 30 31 32 33 34 35 36 37 38 39 40 41 42 43 44 45 46 47 48 49 50
000
FTUS41 KCTP 200539
TAFIPT
TAF
KIPT 200539Z 2006/2106 14012G22KT P6SM OVC025 WS018/18032KT
     FM200700 31009G18KT P6SM SCT008 OVC015 WS018/19032KT
     FM201600 14009KT P6SM BKN045=

USA.gov is the U.S. government's official web portal to all federal, state and local government web resources and services.